Terminal Aerodrome Forecast
Issued by NWS Grand Forks, ND

Home | Current Version | Previous Version | Graphics & Text | Print | Product List | Glossary On
Versions: 1 2 3 4 5 6 7 8 9 10 11 12 13 14 15 16 17 18 19 20 21
000
FTUS43 KFGF 211000 AAB
TAFGFK
TAF AMD
KGFK 211004Z 2110/2206 19021G27KT P6SM OVC080
     FM211600 18015G23KT P6SM SCT015 BKN250
     FM220100 20013KT P6SM SCT250=

USA.gov is the U.S. government's official web portal to all federal, state and local government web resources and services.